Darstellungsparameter: Aktuell verwendete Einstellungen:
Skalierung der Graphiken ... ?
xyx+y,   Skalierungsfaktor:      Skalierung: Modus: x, Faktor: 1
Darstellungszeitraum ... ?
Vom - - bis: - -   Zeitraum: 15.11.2008 - 15.11.2008
Min/Max/Avg-Anzeige ... ?
Zeige MMA aktuell
Zeige MMA Monat
Zeige MMA alles
Zeige --A aktuell
Zeige --A Monat
Zeige --A alles
Keine MMA-Anzeige
MMA:
Keine MMA-Graphiken
MMA-Basis: 15.11.2008 - 15.11.2008
Quicknavigation für Darstellung... ?
Tage:      1T, 2T, 3T, 5T -1T -2T -3T -5T +1T +2T +3T +5T
Wochen: 1W, 2W, 3W -1W -2W -3W +1W +2W +3W
Monate: 1M, 3M, 6M -1M -3M -6M +1M +3M +6M
Jahre:    1J, 3J, 5J, 10J -1J -3J -5J -10J +1J +3J +5J +10J
Nutze für die Darstellung ... ?
Originaldaten oder Mittelwerte auf ...
Stundenbasis Tagesbasis Wochenbasis
Monatsbasis Jahresbasis      Datenbasis: Original-Daten
Darstellen als:
Statistik (Auto) Statistik J:M      Darstellung:
Zur Graphik,    zurück zur Übersicht aller Sensoren.
 
Tabellarische Datenbersicht: ?
 
Sensor: Nr:Datum:Temp:Feuchte:Taupunkt:
Aussen-T/F 1 15-11-2008 00:07:01 8.1 C 76 % 4.13 C
2 15-11-2008 00:19:01 8.1 C 76 % 4.13 C
3 15-11-2008 00:31:01 8.1 C 77 % 4.32 C
4 15-11-2008 00:43:02 8.1 C 77 % 4.32 C
5 15-11-2008 00:55:02 8.1 C 78 % 4.5 C
6 15-11-2008 01:07:02 8.1 C 78 % 4.5 C
7 15-11-2008 01:19:02 8 C 78 % 4.41 C
8 15-11-2008 01:31:02 8 C 79 % 4.59 C
9 15-11-2008 01:43:02 8.1 C 79 % 4.68 C
10 15-11-2008 01:55:02 8.1 C 79 % 4.68 C
11 15-11-2008 02:07:02 8.2 C 79 % 4.78 C
12 15-11-2008 02:19:02 8.2 C 79 % 4.78 C
13 15-11-2008 02:31:02 8.2 C 79 % 4.78 C
14 15-11-2008 02:43:02 8.2 C 79 % 4.78 C
15 15-11-2008 02:55:02 8.2 C 79 % 4.78 C
16 15-11-2008 03:07:02 8.2 C 79 % 4.78 C
17 15-11-2008 03:19:02 8.2 C 79 % 4.78 C
18 15-11-2008 03:31:02 8.2 C 79 % 4.78 C
19 15-11-2008 03:43:02 8.2 C 80 % 4.96 C
20 15-11-2008 03:55:02 8.2 C 80 % 4.96 C
21 15-11-2008 04:07:02 8.2 C 80 % 4.96 C
22 15-11-2008 04:19:02 8.2 C 80 % 4.96 C
23 15-11-2008 04:31:03 8.3 C 81 % 5.24 C
24 15-11-2008 04:43:03 8.4 C 81 % 5.33 C
25 15-11-2008 04:55:03 8.5 C 81 % 5.43 C
Sensor: Nr:Datum:Temp:Feuchte:Taupunkt:
Aussen-T/F 26 15-11-2008 05:07:03 8.5 C 81 % 5.43 C
27 15-11-2008 05:19:03 8.6 C 81 % 5.53 C
28 15-11-2008 05:31:03 8.7 C 81 % 5.63 C
29 15-11-2008 05:43:03 8.8 C 80 % 5.55 C
30 15-11-2008 05:55:03 8.8 C 80 % 5.55 C
31 15-11-2008 06:07:03 8.8 C 80 % 5.55 C
32 15-11-2008 06:19:03 8.8 C 80 % 5.55 C
33 15-11-2008 06:31:03 8.8 C 80 % 5.55 C
34 15-11-2008 06:43:03 8.9 C 80 % 5.64 C
35 15-11-2008 06:55:03 8.9 C 80 % 5.64 C
36 15-11-2008 07:07:03 9 C 79 % 5.56 C
37 15-11-2008 07:19:03 9 C 79 % 5.56 C
38 15-11-2008 07:31:03 9 C 79 % 5.56 C
39 15-11-2008 07:43:03 9 C 80 % 5.74 C
40 15-11-2008 07:55:03 9.4 C 79 % 5.95 C
41 15-11-2008 08:07:03 9.1 C 79 % 5.66 C
42 15-11-2008 08:19:01 9.3 C 79 % 5.85 C
43 15-11-2008 08:31:01 9.3 C 79 % 5.85 C
44 15-11-2008 08:43:01 9.3 C 78 % 5.67 C
45 15-11-2008 08:55:02 9.3 C 78 % 5.67 C
46 15-11-2008 09:07:02 9.4 C 78 % 5.76 C
47 15-11-2008 09:19:03 9.5 C 78 % 5.86 C
48 15-11-2008 09:31:02 9.5 C 77 % 5.68 C
49 15-11-2008 09:43:02 9.6 C 77 % 5.77 C
50 15-11-2008 09:55:02 9.6 C 77 % 5.77 C
Sensor: Nr:Datum:Temp:Feuchte:Taupunkt:
Aussen-T/F 51 15-11-2008 10:07:02 9.6 C 77 % 5.77 C
52 15-11-2008 10:19:02 9.7 C 76 % 5.68 C
53 15-11-2008 10:31:02 9.7 C 76 % 5.68 C
54 15-11-2008 10:43:03 9.8 C 76 % 5.78 C
55 15-11-2008 10:55:01 9.8 C 76 % 5.78 C
56 15-11-2008 11:07:02 9.8 C 76 % 5.78 C
57 15-11-2008 11:19:01 9.9 C 76 % 5.87 C
58 15-11-2008 11:31:02 10.1 C 75 % 5.88 C
59 15-11-2008 11:43:02 10.2 C 74 % 5.78 C
60 15-11-2008 11:55:02 10.4 C 74 % 5.97 C
61 15-11-2008 12:07:02 10.4 C 73 % 5.78 C
62 15-11-2008 12:19:02 10.6 C 72 % 5.77 C
63 15-11-2008 12:31:02 10.6 C 72 % 5.77 C
64 15-11-2008 12:43:02 10.7 C 72 % 5.87 C
65 15-11-2008 12:55:02 10.8 C 71 % 5.76 C
66 15-11-2008 13:07:01 11 C 69 % 5.54 C
67 15-11-2008 13:19:02 11 C 68 % 5.33 C
68 15-11-2008 13:31:02 11.1 C 68 % 5.43 C
69 15-11-2008 13:43:02 11.2 C 67 % 5.31 C
70 15-11-2008 13:55:02 11.3 C 67 % 5.4 C
71 15-11-2008 14:07:02 11.3 C 67 % 5.4 C
72 15-11-2008 14:19:02 11.3 C 67 % 5.4 C
73 15-11-2008 14:31:02 11.4 C 67 % 5.5 C
74 15-11-2008 14:43:02 11.4 C 67 % 5.5 C
75 15-11-2008 14:55:02 11.4 C 67 % 5.5 C
Sensor: Nr:Datum:Temp:Feuchte:Taupunkt:
Aussen-T/F 76 15-11-2008 15:07:02 11.3 C 68 % 5.62 C
77 15-11-2008 15:19:02 11.3 C 68 % 5.62 C
78 15-11-2008 15:31:02 11.3 C 68 % 5.62 C
79 15-11-2008 15:43:02 11.2 C 69 % 5.73 C
80 15-11-2008 15:55:02 11.2 C 69 % 5.73 C
81 15-11-2008 16:07:02 11.1 C 70 % 5.84 C
82 15-11-2008 16:19:02 11 C 70 % 5.75 C
83 15-11-2008 16:31:02 11 C 71 % 5.95 C
84 15-11-2008 16:43:02 11 C 71 % 5.95 C
85 15-11-2008 16:55:01 11 C 71 % 5.95 C
86 15-11-2008 17:07:02 10.9 C 72 % 6.06 C
87 15-11-2008 17:19:02 10.9 C 73 % 6.26 C
88 15-11-2008 17:31:02 10.9 C 73 % 6.26 C
89 15-11-2008 17:43:02 10.8 C 73 % 6.16 C
90 15-11-2008 17:55:02 10.8 C 74 % 6.36 C
91 15-11-2008 18:07:03 10.8 C 74 % 6.36 C
92 15-11-2008 18:19:02 10.7 C 74 % 6.26 C
93 15-11-2008 18:31:03 10.8 C 74 % 6.36 C
94 15-11-2008 18:43:03 10.7 C 74 % 6.26 C
95 15-11-2008 18:55:02 10.7 C 74 % 6.26 C
96 15-11-2008 19:07:02 10.7 C 74 % 6.26 C
97 15-11-2008 19:19:02 10.7 C 74 % 6.26 C
98 15-11-2008 19:31:02 10.7 C 74 % 6.26 C
99 15-11-2008 19:43:02 10.7 C 74 % 6.26 C
100 15-11-2008 19:55:01 10.7 C 75 % 6.46 C
Sensor: Nr:Datum:Temp:Feuchte:Taupunkt:
Aussen-T/F 101 15-11-2008 20:07:02 10.7 C 75 % 6.46 C
102 15-11-2008 20:19:01 10.6 C 75 % 6.36 C
103 15-11-2008 20:31:01 10.6 C 75 % 6.36 C
104 15-11-2008 20:43:01 10.6 C 76 % 6.55 C
105 15-11-2008 20:55:02 10.6 C 76 % 6.55 C
106 15-11-2008 21:07:02 10.5 C 77 % 6.64 C
107 15-11-2008 21:19:02 10.5 C 77 % 6.64 C
108 15-11-2008 21:31:02 10.5 C 77 % 6.64 C
109 15-11-2008 21:43:02 10.5 C 78 % 6.83 C
110 15-11-2008 21:55:02 10.5 C 78 % 6.83 C
111 15-11-2008 22:07:01 10.5 C 78 % 6.83 C
112 15-11-2008 22:19:02 10.5 C 78 % 6.83 C
113 15-11-2008 22:31:01 10.5 C 78 % 6.83 C
114 15-11-2008 22:43:01 10.4 C 78 % 6.74 C
115 15-11-2008 22:55:02 10.4 C 79 % 6.92 C
116 15-11-2008 23:07:01 10.4 C 79 % 6.92 C
117 15-11-2008 23:20:02 10.4 C 79 % 6.92 C
118 15-11-2008 23:32:02 10.4 C 79 % 6.92 C
119 15-11-2008 23:44:02 10.4 C 79 % 6.92 C
120 15-11-2008 23:56:03 10.3 C 80 % 7.01 C

Legende:
   Min
   Max


Maximal/Minimal-Werte vom 15.11.2008 - 15.11.2008

Sensor Min Max Avg
Temp
(Aussen-T/F)
8 °C
15-11-2008  01:19:02
11.4 °C
15-11-2008  14:31:02
9.82 °C
Feuchte
(Aussen-T/F)
67 %
15-11-2008  13:43:02
81 %
15-11-2008  04:31:03
75.78 %
Taupunkt
(Aussen-T/F)
4.13 C
15-11-2008  00:07:01
7.01 C
15-11-2008  23:56:03
5.68 C

Die Daten stammen von einer Davis Vantage Pro 2 Wetter-Station und werden unter Linux mit der Software wview2wettercgi und aufbereitet. Alle Angaben erfolgen ohne Gewähr für ihre Vollständigkeit oder Richtigkeit.
Kontakt: Rainer Krienke krienke@uni-koblenz.de . Meine Webseiten an der Uni Koblenz oder privat.
Version: $Revision: 0.78 $